Location: Hardetschlag
(48.7366°N, 14.6612°E)
Time: 06:59:50
(UTC+00:00)

Daily predictions for brighter satellites

Satellite Brightness Start Highest point End
(mag) Time Altitude Azimuth Time Altitude Azimuth Time Altitude Azimuth
Okean 3 Rocket 3.6 19:25:49 10° N 19:30:12 73° ENE 19:34:33 10° SSE
Okean 1 4.2 19:30:38 10° SSE 19:34:00 29° E 19:37:25 10° NNE
Tsikada Rocket 4.2 19:27:55 10° SSW 19:34:07 79° W 19:40:28 10° N
Aureole 3 Rocket 4.2 19:30:37 10° NNW 19:34:55 57° W 19:40:53 10° S
IRS-1C Rocket 4.2 19:30:04 10° SSE 19:35:18 70° ENE 19:40:32 10° N
Ariane Rocket 3.7 19:32:42 10° SE 19:37:25 41° ENE 19:42:10 10° N
Resurs 01 Rocket 3.3 19:33:52 10° SSW 19:37:52 33° W 19:41:52 10° NNW
SPOT 3 Rocket 4.3 19:33:38 10° SE 19:38:21 38° ENE 19:43:06 10° N
Meteor 1-10 Rocket 4.4 19:33:57 10° S 19:39:28 55° E 19:44:56 10° NNE
Okean O Rocket 3.2 19:40:16 10° SSW 19:44:16 33° W 19:48:19 10° NNW
USA 234 4.2 19:38:03 10° ENE 19:44:22 52° NNW 19:50:39 10° W
SPOT 5 2.7 19:44:00 10° SSE 19:48:30 83° WSW 19:52:52 10° NNW
Meteor 1-11 Rocket 3.9 19:43:05 10° N 19:48:48 70° ENE 19:54:34 10° SSE
Meteor 2-6 Rocket 4.4 19:43:52 10° SSW 19:49:24 77° WNW 19:54:52 10° N
Cosmos 1536 2.8 19:48:23 10° N 19:52:18 74° ENE 19:56:14 10° SSE
Cosmos 1452 Rocket 3.9 19:48:42 10° NNW 19:53:54 65° WSW 19:59:04 10° S
ERS-1 Rocket 3.0 19:50:45 10° SSE 19:55:45 76° ENE 20:00:48 10° NNW
Cosmos 1943 3.5 19:51:06 10° SSW 19:56:47 77° WNW 20:02:29 10° NNE
Cosmos 1743 Rocket 3.9 19:58:09 10° N 20:02:30 53° ENE 20:06:21 13° SSE
Cosmos 1726 2.5 20:02:00 10° NNW 20:05:01 47° W 20:08:00 10° S
Cosmos 1408 Rocket 3.7 20:06:04 10° NNW 20:10:32 76° W 20:14:58 10° S
Cosmos 1697 Rocket 4.3 20:11:35 10° N 20:16:11 25° NE 20:20:46 10° E
Meteor 2-9 Rocket 4.3 20:10:56 10° NNW 20:16:50 89° E 20:22:22 12° S
MetOp-A 4.4 20:14:45 15° SE 20:18:26 45° ENE 20:23:14 10° N
USA 59 Rocket 0.1 20:15:22 10° NW 20:19:12 81° NE 20:23:22 16° SE
Lacrosse 4 Rocket 2.0 20:16:57 10° NNW 20:20:55 47° NE 20:24:00 16° ESE
NOSS 2-1 (E) 3.6 20:17:54 10° NW 20:21:45 84° NE 20:25:51 16° SE
ARIANE 5 R/B 4.5 20:19:13 10° ESE 20:22:10 18° ENE 20:25:07 10° NNE
USA 306 4.4 20:21:52 10° W 20:24:48 21° SW 20:27:09 13° S
Cosmos 1980 Rocket 4.3 20:21:09 10° N 20:24:59 18° NE 20:28:46 10° E
Cosmos 1151 Rocket 3.2 20:21:57 14° S 20:25:33 54° E 20:29:48 10° NNE
Meteor 2-10 4.2 20:21:54 10° NNW 20:27:25 77° W 20:32:11 13° S
Nadezhda 4 Rocket 4.0 20:23:28 10° S 20:29:37 74° E 20:35:54 10° NNE
USA 245 3.7 20:29:53 14° SSW 20:31:29 29° W 20:33:43 10° NNW
Cosmos 1992 Rocket 4.2 20:26:47 10° NNW 20:31:59 62° ENE 20:35:45 18° SE
Meteor 2-4 Rocket 4.3 20:27:59 15° SSE 20:32:32 45° E 20:38:09 10° NNE
Meteor 1-27 Rocket 3.7 20:27:57 10° S 20:33:28 88° W 20:39:05 10° NNE
Cosmos 1302 Rocket 4.2 20:28:39 10° NNW 20:33:50 70° WSW 20:37:57 16° S
NOSS 2-1 (D) 3.6 20:30:48 10° NW 20:34:40 74° SW 20:38:16 19° SSE
Meteor 2-17 Rocket 4.4 20:29:36 10° S 20:35:38 80° E 20:41:43 10° NNE
Lacrosse 5 rocket 3.4 20:34:58 10° NW 20:38:38 27° N 20:42:12 10° ENE
Cosmos 1328 Rocket 4.4 20:36:44 20° SE 20:38:55 32° E 20:42:46 10° NNE
Landsat 5 3.3 20:38:23 10° NNE 20:42:09 59° ESE 20:44:40 20° S
Cosmos 1340 Rocket 2.9 20:38:12 10° SSW 20:42:11 75° WNW 20:46:11 10° N
SL-8 R/B 3.6 20:38:32 10° W 20:43:18 88° S 20:48:05 10° E
FALCON 9 R/B 4.5 20:37:49 10° SW 20:43:19 26° S 20:51:58 16° SE
NOSS 3-3 (A) 4.1 20:38:15 10° S 20:43:22 45° ESE 20:49:15 10° NE
Cosmos 1500 Rocket 4.5 20:42:05 10° NNW 20:46:10 43° W 20:49:57 12° SSW
Terra 2.7 20:41:55 11° S 20:46:11 45° W 20:50:43 10° NNW
BREEZE-M DEB (TANK) 1.7 20:44:03 10° W 20:46:13 73° N 20:48:41 10° E
Spot 1 3.9 20:47:56 10° NNE 20:52:04 83° ESE 20:55:28 16° SSW
Cosmos 220 Rocket 3.9 20:49:12 12° SSW 20:53:08 77° ESE 20:57:27 10° NNE
Spot 2 Rocket 4.3 20:48:48 12° S 20:53:09 46° W 20:58:02 10° NNW
BREEZE-M DEB (TANK) 4.4 20:48:42 10° W 20:53:12 73° S 21:08:50 10° E
USA 281 3.2 20:48:50 19° SSE 20:53:49 88° WSW 21:00:28 10° NNW
Cosmos 1340 3.5 20:51:56 10° NNW 20:55:07 38° W 20:57:17 17° SSW
Cosmos 1470 Rocket 4.4 20:52:58 10° N 20:57:10 39° ENE 20:59:23 23° SE
BREEZE-M DEB (TANK) 3.1 20:47:47 10° SW 20:58:32 60° SSE 21:01:42 10° ENE
Cosmos 1733 4.4 20:55:49 10° NNW 20:58:58 32° W 21:01:27 14° SSW
IRIDIUM 104 4.3 20:54:13 10° N 20:59:28 75° E 21:02:49 23° SSE
BREEZE-M DEB (TANK) 4.3 20:56:57 10° W 21:00:54 88° N 21:18:34 10° E
Cosmos 1633 Rocket 3.1 20:57:54 10° N 21:02:19 68° ENE 21:04:39 27° SSE
MOS 1 Rocket 4.3 20:58:05 14° S 21:02:20 49° W 21:07:34 10° NNW
Sich 1 4.4 20:59:21 10° NNW 21:03:21 35° W 21:06:55 12° SSW
Cosmos 1833 Rocket 3.4 21:01:01 23° SSE 21:03:40 35° ESE 21:08:43 10° NE
Cosmos 1666 Rocket 3.4 21:01:59 10° N 21:06:19 89° E 21:08:38 27° S
Cosmos 2026 Rocket 4.0 21:03:45 18° S 21:08:35 77° E 21:14:48 10° NNE
IRIDIUM 114 4.3 21:03:20 10° N 21:08:37 89° E 21:11:57 23° S
Meteor 1-18 Rocket 4.3 21:04:52 19° S 21:09:08 71° E 21:15:02 10° NNE
NOSS 2-1 (C) 4.5 21:07:52 10° WNW 21:11:37 38° SW 21:14:10 23° S
Cosmos 2082 Rocket 4.1 21:11:49 12° ESE 21:12:56 13° E 21:15:25 10° ENE
Cosmos 1656 3.7 21:08:54 10° NNW 21:14:22 71° WSW 21:17:33 26° SSE
NOSS 3-3 (C) 3.7 21:09:38 10° SSW 21:15:02 68° SE 21:21:23 10° NE
Cosmos 1805 4.0 21:11:35 10° NNW 21:15:08 43° W 21:17:07 22° SSW
Cosmos 2360 4.3 21:09:48 10° NNW 21:15:33 76° ENE 21:18:58 25° SE
Cosmos 1766 3.3 21:12:04 10° N 21:15:47 58° ENE 21:17:09 34° SE
Ariane Rocket 4.4 21:12:14 11° SSW 21:16:26 31° W 21:20:56 10° NNW
Cosmos 1975 3.1 21:12:35 10° NNW 21:16:29 58° W 21:18:27 26° SSW
IRIDIUM 103 4.4 21:12:31 10° N 21:17:45 77° W 21:21:04 23° S
Cosmos 1627 Rocket 4.5 21:13:38 18° S 21:18:31 88° E 21:24:49 10° N
Cosmos 1933 Rocket 4.5 21:18:07 10° N 21:22:12 37° ENE 21:24:01 25° ESE
Cosmos 1818 3.5 21:16:51 10° SW 21:22:18 89° SE 21:27:50 10° NE
Cosmos 1626 1.7 21:21:26 38° SSW 21:22:33 81° W 21:25:48 10° N
Cosmos 1674 3.2 21:24:29 33° ESE 21:25:01 35° E 21:28:15 10° NNE
USA 234 4.4 21:20:36 10° ENE 21:26:43 44° N 21:32:50 10° WNW
Cosmos 1470 3.5 21:24:35 10° N 21:28:04 37° ENE 21:29:09 30° ESE
PSLV R/B 4.2 21:26:07 10° NNE 21:30:03 48° E 21:31:13 36° SSE
Cosmos 1607 4.3 21:26:22 23° S 21:30:04 47° ESE 21:36:15 10° NE
BREEZE-M DEB (TANK) 4.1 21:27:17 17° SSW 21:30:40 48° SE 21:45:24 10° ENE
ALOS 2 3.9 21:30:37 20° ESE 21:32:43 30° ENE 21:36:32 10° N
Cosmos 407 Rocket 4.5 21:33:03 26° SE 21:34:36 31° E 21:39:11 10° NE
Orbus 7S? 3.4 21:33:19 10° SW 21:38:35 54° SE 21:41:32 10° ENE
Cosmos 1553 Rocket 3.9 21:35:47 10° N 21:41:55 86° E 21:45:15 29° S
GEOS 3 Rocket 3.6 21:41:48 10° NE 21:47:01 83° NW 21:52:08 10° SW
CZ-2C R/B 3.6 21:43:03 10° NNE 21:47:34 87° WNW 21:49:38 31° SSW
Cosmos 1269 Rocket 4.3 21:43:47 15° SW 21:48:06 67° WNW 21:53:23 10° NNE
DELTA 2 R/B (1) 4.4 21:45:11 10° SW 21:49:05 29° S 21:49:05 29° S
Cosmos 2251 Rocket 4.1 21:53:11 32° SE 21:54:50 41° ESE 21:59:46 10° NE
Cosmos 2285 Rocket 4.1 21:54:20 30° S 21:57:25 58° ESE 22:03:38 10° NNE
ARIANE 5 R/B 2.9 21:56:36 35° SSW 21:58:10 57° WSW 22:02:25 10° NNW
Lacrosse 4 Rocket 3.0 21:55:47 10° WNW 21:58:55 21° WSW 21:59:56 20° SW
Cosmos 1908 3.3 21:55:33 10° N 21:59:05 57° ENE 21:59:43 48° ESE
BREEZE-M DEB (TANK) 4.1 21:40:20 10° WSW 22:00:17 69° SSE 22:04:59 10° ENE
Cosmos 1697 Rocket 2.7 21:55:06 10° NNW 22:00:44 74° WSW 22:03:15 34° SSE
H-2A R/B 2.4 22:02:05 43° S 22:03:25 80° WSW 22:07:44 10° NNW
Cosmos 44 Rocket 3.4 21:58:59 10° NW 22:03:52 62° WSW 22:05:27 39° S
USA 59 Rocket 2.3 22:05:58 10° W 22:08:48 16° WSW 22:09:54 15° SW
Cosmos 1980 Rocket 2.4 22:04:20 10° NNW 22:10:04 69° ENE 22:13:03 29° SE
Lacrosse 5 rocket 2.0 22:13:34 10° NW 22:17:41 52° NNE 22:20:29 18° E
Cosmos 2266 Rocket 4.0 22:15:04 32° S 22:18:04 76° E 22:24:22 10° NNE
Cosmos 1707 2.6 22:17:49 54° SSW 22:18:33 76° WNW 22:22:12 10° N
H-2A R/B 3.1 22:20:52 10° NNE 22:24:49 31° E 22:25:39 28° ESE
Cosmos 1515 Rocket 4.3 22:22:55 27° SW 22:24:50 45° WNW 22:29:00 10° N
SL-8 R/B 3.7 22:20:58 10° W 22:25:37 55° SSW 22:26:46 43° SSE
Cosmos 1441 Rocket 2.8 22:22:04 10° N 22:25:40 85° ENE 22:26:06 66° SSE
SL-14 R/B 4.3 22:25:31 30° ESE 22:25:58 30° E 22:29:22 10° NNE
Cosmos 1300 3.4 22:27:47 10° N 22:31:10 39° ENE 22:31:46 36° E
Cosmos 1842 4.1 22:30:14 31° WSW 22:31:20 39° WNW 22:34:50 10° N
Cosmos 1733 Rocket 3.8 22:27:28 10° N 22:31:37 42° ENE 22:33:04 31° ESE
Cosmos 1655 Rocket 4.1 22:28:41 33° SSE 22:31:38 68° E 22:37:59 10° NNE
USA 267 4.0 22:26:23 10° ENE 22:32:03 31° SE 22:33:21 28° SSE
Cosmos 2369 3.7 22:27:09 10° NNW 22:32:54 79° ENE 22:35:44 31° SE
Cosmos 1869 Rocket 3.6 22:32:11 10° NNW 22:36:31 68° W 22:37:42 46° SSW
Cosmos 724 4.3 22:33:42 21° SW 22:37:46 80° NW 22:43:37 10° NE
Cosmos 2228 Rocket 3.6 22:36:49 39° SE 22:37:55 48° E 22:42:17 10° NNE
Cosmos 1140 Rocket 4.0 22:36:54 23° SW 22:40:03 56° WNW 22:45:12 10° NNE
Meteor 1-23 Rocket 4.3 22:38:15 37° SSE 22:40:27 66° E 22:46:03 10° NNE
COSMOS 2406 3.6 22:39:00 36° SSE 22:40:57 50° ESE 22:46:31 10° NE
Cosmos 1758 3.3 22:40:56 10° N 22:44:46 65° ENE 22:45:29 52° SE
SL-16 R/B 3.4 22:41:50 10° NNW 22:47:09 38° NE 22:52:02 12° ESE
Cosmos 1833 Rocket 3.6 22:42:38 12° WSW 22:47:28 44° NW 22:52:52 10° NNE
NOSS 3-4 (A) 4.1 22:43:27 10° NW 22:50:11 56° WSW 22:53:53 31° S
NOSS 3-4 (C) 4.0 22:43:32 10° NW 22:50:18 57° WSW 22:54:01 31° S
Cosmos 841 Rocket 4.4 22:47:32 10° NNW 22:52:32 43° ENE 22:55:53 20° ESE
Cosmos 2082 Rocket 2.2 22:53:37 36° SSW 22:56:02 77° ESE 23:01:46 10° NNE
GP-B 3.0 22:53:17 10° N 22:57:43 88° E 22:58:54 49° S
Okean 1-7 4.2 23:00:45 26° ESE 23:01:53 31° E 23:05:42 10° NNE
Cosmos 2360 Rocket 4.0 22:57:08 10° NNW 23:02:01 28° NE 23:06:52 10° ESE
Meteor 1-4 Rocket 4.2 23:07:17 18° E 23:07:17 18° E 23:09:12 10° NE
ALOS 2 3.6 23:08:01 30° WSW 23:08:58 33° W 23:12:59 10° NNW
USA 234 3.7 23:02:44 10° ESE 23:09:11 64° NNE 23:15:40 10° NW
Cosmos 1862 Rocket 3.5 23:10:11 49° S 23:11:15 76° E 23:15:36 10° NNE
PSLV R/B 3.7 23:06:48 10° N 23:11:16 73° WNW 23:12:37 43° SW
Cosmos 1315 Rocket 4.3 23:10:50 22° ESE 23:11:40 24° E 23:14:52 10° NE
Cosmos 468 Rocket 4.0 23:06:42 10° NNW 23:11:59 72° WSW 23:13:52 40° S
Cosmos 1763 Rocket 3.9 23:07:34 10° NNW 23:12:40 49° WSW 23:14:15 37° SSW
Cosmos 1455 3.4 23:12:47 10° N 23:15:54 29° ENE 23:16:51 25° ESE
Cosmos 540 Rocket 3.6 23:11:13 10° NNW 23:16:19 61° WSW 23:17:58 40° SSW
Cosmos 407 Rocket 4.4 23:13:10 20° WSW 23:16:24 43° WNW 23:21:24 10° NNE
Cosmos 2237 4.5 23:12:07 10° NNW 23:17:51 67° ENE 23:21:36 22° SE
Cosmos 676 Rocket 4.0 23:18:32 39° S 23:20:34 80° ESE 23:25:56 10° NNE
Helios 1A Rocket 4.2 23:20:30 21° ESE 23:22:21 32° ENE 23:25:47 10° N
Cosmos 1954 Rocket 4.0 23:20:45 37° SSW 23:22:57 83° WNW 23:28:18 10° NNE
SJ 16-02 3.5 23:23:06 13° ESE 23:24:27 14° E 23:26:48 10° ENE
Meteor 2-10 Rocket 4.2 23:20:04 10° NNW 23:25:40 51° W 23:27:55 33° SSW
Aureole 3 2.5 23:26:04 83° NW 23:26:04 83° NW 23:29:10 10° N
Cosmos 1190 Rocket 4.4 23:25:29 29° SW 23:28:05 59° WNW 23:33:22 10° NNE
Cosmos 1346 Rocket 2.7 23:24:49 10° NNW 23:28:41 68° W 23:29:19 56° SSW
Meteor 1-21 4.2 23:26:26 36° SSW 23:28:56 82° WNW 23:34:45 10° N
Cosmos 1400 Rocket 3.5 23:28:36 35° WSW 23:29:40 43° WNW 23:33:29 10° N
Cosmos 2278 3.7 23:26:19 10° NNW 23:32:04 88° WSW 23:35:08 29° SSE
Cosmos 1356 Rocket 3.4 23:32:46 48° SW 23:33:47 70° WNW 23:37:56 10° N
Cosmos 1707 Rocket 4.0 23:33:33 37° SW 23:34:58 53° WNW 23:39:22 10° N
SL-4 R/B 4.0 23:39:55 17° ESE 23:39:55 17° ESE 23:42:06 10° E
Cosmos 2322 Rocket 2.6 23:37:51 10° NNW 23:43:28 60° ENE 23:48:22 14° SE
Nadezhda 1 Rocket 4.2 23:39:53 10° N 23:46:19 74° E 23:50:12 25° SSE
ATLAS 2AS CENTAUR R/B 3.7 23:40:34 10° NW 23:47:13 46° NE 23:53:35 10° ESE
Cosmos 2333 Rocket 2.9 23:47:34 10° NNW 23:53:11 53° NE 23:58:46 10° SE
Cosmos 1980 Rocket 3.6 23:49:16 10° NW 23:53:30 22° W 23:54:47 20° WSW
Lacrosse 5 rocket 2.2 23:52:10 10° WNW 23:55:16 32° WSW 23:55:16 32° WSW
